Chehalis, WA
on Sunday, December 30, 2012

Sunday
Previous Day Next Day
Daily Summary
 ActualAverage (KOLM)Record (KOLM)
Temperature
Mean Temperature °F 38°F  
Max Temperature 44°F 44°F 57°F (1958)
Min Temperature 30°F 33°F 3°F (1978)
Degree Days
Heating Degree Days 28 27  
Month to date heating degree days 799  
Since 1 July heating degree days 2244  
Cooling Degree Days 0 0  
Month to date cooling degree days 0  
Year to date cooling degree days 106  
Moisture
Dew Point 34°F   
Average Humidity 88    
Maximum Humidity 100    
Minimum Humidity 61    
Precipitation
Precipitation 0.00 in 0.22 in 2.50 in (1970)
Month to date precipitation 7.24  
Year to date precipitation 49.78  
Wind
Wind Speed 1 mph   
Max Wind Speed 6 mph   
Max Gust Speed mph   
Visibility 7 miles   
Events Fog   

Key: T is trace of precipitation, MM is missing value
Source: NWS Daily Summary
Time(PST)TemperatureDew PointHumidity Pressure Visibility Wind DirectionWind SpeedGust SpeedPrecipitationEvents Conditions
12:15 AM 37.4°F 37.4°F 100% 30.25 in 6.0 miles Calm Calm - N/A   Overcast
12:35 AM 37.4°F 35.6°F 93% 30.24 in 7.0 miles Calm Calm - N/A   Overcast
12:55 AM 37.4°F 35.6°F 93% 30.24 in 7.0 miles Calm Calm - N/A   Overcast
1:15 AM 37.4°F 37.4°F 100% 30.24 in 7.0 miles Calm Calm - N/A   Overcast
1:35 AM 37.4°F 35.6°F 93% 30.24 in 7.0 miles ENE 4.6 mph - N/A   Overcast
1:55 AM 37.4°F 37.4°F 100% 30.25 in 7.0 miles East 3.5 mph - N/A   Overcast
2:15 AM 37.4°F 35.6°F 93% 30.26 in 9.0 miles Calm Calm - N/A   Overcast
2:35 AM 37.4°F 35.6°F 93% 30.26 in 6.0 miles SSE 3.5 mph - N/A   Overcast
2:55 AM 37.4°F 35.6°F 93% 30.26 in 6.0 miles SSE 3.5 mph - N/A   Overcast
3:15 AM 37.4°F 35.6°F 93% 30.27 in 6.0 miles SSW 3.5 mph - N/A   Overcast
3:35 AM 37.4°F 35.6°F 93% 30.27 in 4.0 miles Calm Calm - N/A   Overcast
3:55 AM 37.4°F 35.6°F 93% 30.27 in 3.0 miles Calm Calm - N/A   Overcast
4:15 AM 37.4°F 35.6°F 93% 30.28 in 5.0 miles Calm Calm - N/A   Overcast
4:35 AM 37.4°F 35.6°F 93% 30.28 in 4.0 miles SSW 3.5 mph - N/A   Overcast
4:55 AM 37.4°F 35.6°F 93% 30.28 in 8.0 miles Calm Calm - N/A   Overcast
5:15 AM 37.4°F 35.6°F 93% 30.28 in 7.0 miles Calm Calm - N/A   Overcast
5:35 AM 37.4°F 35.6°F 93% 30.29 in 4.0 miles Calm Calm - N/A   Overcast
5:55 AM 37.4°F 35.6°F 93% 30.29 in 5.0 miles Calm Calm - N/A   Overcast
6:15 AM 37.4°F 35.6°F 93% 30.29 in 7.0 miles Calm Calm - N/A   Overcast
6:55 AM 37.4°F 35.6°F 93% 30.29 in 7.0 miles SSW 4.6 mph - N/A   Overcast
7:15 AM 37.4°F 35.6°F 93% 30.29 in 6.0 miles SSW 3.5 mph - N/A   Overcast
7:55 AM 37.4°F 35.6°F 93% 30.30 in 8.0 miles South 3.5 mph - N/A   Overcast
8:35 AM 37.4°F 35.6°F 93% 30.30 in 5.0 miles SSW 3.5 mph - N/A   Overcast
8:55 AM 37.4°F 35.6°F 93% 30.31 in 9.0 miles South 4.6 mph - N/A   Overcast
9:15 AM 37.4°F 35.6°F 93% 30.31 in 10.0 miles South 4.6 mph - N/A   Overcast
9:35 AM 37.4°F 35.6°F 93% 30.32 in 10.0 miles South 3.5 mph - N/A   Mostly Cloudy
9:55 AM 39.2°F 35.6°F 87% 30.33 in 10.0 miles SE 4.6 mph - N/A   Overcast
10:15 AM 39.2°F 33.8°F 81% 30.33 in 10.0 miles South 4.6 mph - N/A   Scattered Clouds
10:35 AM 39.2°F 33.8°F 81% 30.34 in 9.0 miles SSE 4.6 mph - N/A   Clear
10:55 AM 39.2°F 33.8°F 81% 30.34 in 10.0 miles Calm Calm - N/A   Partly Cloudy
11:15 AM 39.2°F 33.8°F 81% 30.33 in 10.0 miles Calm Calm - N/A   Mostly Cloudy
11:35 AM 39.2°F 33.8°F 81% 30.32 in 10.0 miles East 3.5 mph - N/A   Mostly Cloudy
11:55 AM 41.0°F 33.8°F 76% 30.32 in 10.0 miles Calm Calm - N/A   Mostly Cloudy
12:15 PM 42.8°F 33.8°F 70% 30.31 in 5.0 miles South 5.8 mph - N/A   Haze
12:35 PM 42.8°F 33.8°F 70% 30.31 in 10.0 miles SSW 3.5 mph - N/A   Scattered Clouds
12:55 PM 41.0°F 35.6°F 81% 30.31 in 10.0 miles Calm Calm - N/A   Partly Cloudy
1:15 PM 41.0°F 35.6°F 81% 30.31 in 10.0 miles SSW 4.6 mph - N/A   Partly Cloudy
1:35 PM 42.8°F 35.6°F 76% 30.30 in 10.0 miles South 4.6 mph - N/A   Partly Cloudy
1:55 PM 42.8°F 33.8°F 70% 30.30 in 10.0 miles SSW 3.5 mph - N/A   Clear
2:15 PM 44.6°F 33.8°F 66% 30.30 in 10.0 miles SSW 4.6 mph - N/A   Clear
2:35 PM 44.6°F 32.0°F 61% 30.30 in 10.0 miles Calm Calm - N/A   Clear
2:55 PM 44.6°F 32.0°F 61% 30.30 in 10.0 miles Calm Calm - N/A   Clear
3:15 PM 44.6°F 32.0°F 61% 30.30 in 10.0 miles Calm Calm - N/A   Clear
3:35 PM 44.6°F 32.0°F 61% 30.30 in 10.0 miles SW 3.5 mph - N/A   Clear
3:55 PM 41.0°F 32.0°F 70% 30.29 in 10.0 miles Calm Calm - N/A   Clear
4:15 PM 39.2°F 32.0°F 75% 30.29 in 10.0 miles Calm Calm - N/A   Clear
4:35 PM 37.4°F 32.0°F 81% 30.29 in 10.0 miles Calm Calm - N/A   Clear
4:55 PM 35.6°F 32.0°F 87% 30.29 in 7.0 miles Calm Calm - N/A   Clear
5:15 PM 33.8°F 32.0°F 93% 30.29 in 10.0 miles Calm Calm - N/A   Clear
5:35 PM 33.8°F 32.0°F 93% 30.28 in 10.0 miles Calm Calm - N/A   Clear
5:55 PM 32.0°F 32.0°F 100% 30.28 in 8.0 miles NW 4.6 mph - N/A   Clear
6:15 PM 32.0°F 32.0°F 100% 30.28 in 10.0 miles Calm Calm - N/A   Clear
6:35 PM 32.0°F 32.0°F 100% 30.27 in 10.0 miles Calm Calm - N/A   Clear
6:55 PM 32.0°F 32.0°F 100% 30.28 in 10.0 miles Calm Calm - N/A   Clear
7:15 PM 32.0°F 32.0°F 100% 30.28 in 10.0 miles Calm Calm - N/A   Clear
7:35 PM 32.0°F 30.2°F 93% 30.28 in 8.0 miles Calm Calm - N/A   Clear
7:55 PM 32.0°F 30.2°F 93% 30.28 in 10.0 miles Calm Calm - N/A   Scattered Clouds
8:15 PM 30.2°F 30.2°F 100% 30.28 in 7.0 miles Calm Calm - N/A   Overcast
8:35 PM 30.2°F 30.2°F 100% 30.29 in 0.8 miles Calm Calm - N/A   Overcast
8:55 PM 32.0°F 32.0°F 100% 30.29 in 0.8 miles Calm Calm - N/A   Overcast
9:15 PM 32.0°F 32.0°F 100% 30.29 in 0.5 miles Calm Calm - N/A Fog Light Freezing Fog
10:15 PM 32.0°F 32.0°F 100% 30.31 in 0.2 miles Calm Calm - N/A Fog Light Freezing Fog
10:35 PM 32.0°F 30.2°F 93% 30.31 in 0.2 miles Calm Calm - N/A Fog Light Freezing Fog
10:55 PM 32.0°F 30.2°F 93% 30.31 in 0.2 miles Calm Calm - N/A Fog Light Freezing Fog
11:15 PM 32.0°F 30.2°F 93% 30.31 in 0.2 miles South 3.5 mph - N/A Fog Light Freezing Fog
11:35 PM 32.0°F 30.2°F 93% 30.31 in 0.2 miles Calm Calm - N/A Fog Light Freezing Fog
11:55 PM 32.0°F 30.2°F 93% 30.31 in 0.2 miles SSW 3.5 mph - N/A Fog Light Freezing Fog
Moon Phase
Dec. 30 Jan. 04 Jan. 11 Jan. 18 Jan. 26
Sunrise:07:56 AM (PST) Moon Rise:07:20 PM (PST)12/30
Sunset:04:33 PM (PST) Moon Set:08:59 AM (PST)12/30

Copyright © 2014 The Weather Underground, Inc.